Regional Weather Roundup
Issued by NWS

Home | Current Version | Previous Version | Text Only | Print | Product List | Glossary Off
Versions: 1 2 3 4 5 6 7 8 9 10 11 12 13 14 15 16 17 18 19 20 21 22 23 24 25 26 27 28 29 30 31 32 33 34 35 36 37 38 39 40 41 42 43 44 45 46 47 48 49 50

000
ASUS43 KDMX 251101
RWRIA

WEATHER ROUNDUP FOR IOWA
NATIONAL WEATHER SERVICE DES MOINES IA
600 AM CDT SUN JUN 25 2017

NOTE: "FAIR" INDICATES FEW OR NO CLOUDS BELOW 12,000 FEET WITH NO
SIGNIFICANT WEATHER AND/OR OBSTRUCTIONS TO VISIBILITY.

* - THESE STATIONS ARE NOT NWS STATIONS...THUS NOT UNDER NWS
QUALITY CONTROL.  THEY ALSO DO NOT REPORT WEATHER SUCH
AS PRECIPITATION OR FOG.

IAZ001>003-012>014-020>022-031>034-043>046-251200-
   NORTHWEST IOWA

CITY           SKY/WX    TMP DP  RH WIND       PRES   REMARKS
CARROLL *      PTCLDY    50  43  76 W8        30.24R
CHEROKEE *     CLOUDY    49  45  84 W7        30.25S
DENISON *      CLEAR     46  41  81 W3        30.28R
LE MARS *      CLEAR     48  43  81 NW6       30.28R
ORANGE CITY *  CLEAR     46  45  93 NW7       30.27R
SHELDON *      CLOUDY    50  45  81 NW12G17   30.24R
SIOUX CITY     CLEAR     48  42  80 NW6       30.29R
SPENCER        CLEAR     49  45  86 W12       30.23R
STORM LAKE *   PTCLDY    46  43  87 W9        30.25R
$$

IAZ055>058-069>071-079>083-090>094-251200-
   SOUTHWEST IOWA

CITY           SKY/WX    TMP DP  RH WIND       PRES   REMARKS
ATLANTIC *     PTCLDY    52  43  71 W7        30.26R
AUDUBON *      CLEAR     50  43  76 NW6       30.26R
CLARINDA *       N/A     48  46  93 CALM      30.29R
COUNCIL BLFS * PTCLDY    52  45  76 NW7       30.28S
CRESTON *      PTCLDY    48  43  81 W7        30.26R
HARLAN  *      PTCLDY    48  43  81 NW9       30.30R
LAMONI         CLEAR     51  45  79 W8        30.24R
RED OAK *      PTCLDY    50  45  81 NW5       30.28R
SHENANDOAH *   PTCLDY    52  45  76 CALM      30.29R
$$

IAZ047>049-059>061-072>074-084-251200-
   CENTRAL IOWA

CITY           SKY/WX    TMP DP  RH WIND       PRES   REMARKS
AMES           MOCLDY    50  45  83 W8        30.21R
ANKENY *       PTCLDY    50  46  87 W8        30.23R
BOONE *        MOCLDY    52  43  71 NW9       30.21R
CHARITON *     CLEAR     50  45  81 W8        30.21R
DES MOINES     MOCLDY    51  45  79 W5        30.21R
GRINNELL*      MOCLDY    48  44  84 W3        30.20R
KNOXVILLE *    CLEAR     50  45  81 W6        30.19R
MARSHALLTOWN   PTCLDY    49  45  86 W7        30.18R
NEWTON *       PTCLDY    48  45  87 W7        30.20R
PELLA *        CLEAR     52  45  77 W7        30.21R
PERRY *          N/A     47  45  90 W7        30.23R
$$

IAZ004>006-015-016-023>025-035-036-251200-
   NORTH CENTRAL IOWA

CITY           SKY/WX    TMP DP  RH WIND       PRES   REMARKS
ALGONA *       CLEAR     50  46  87 W12       30.20R
CLARION *        N/A     48  46  93 W8        30.19R
ESTHERVILLE    MOCLDY    50  47  89 NW12      30.20R
FORT DODGE *   MOCLDY    48  41  76 W5        30.22R
MASON CITY     CLEAR     49  44  83 W9        30.18R
FOREST CITY *    N/A     46  41  81 W6        30.17R
WEBSTER CITY * MOCLDY    48  45  87 W8        30.19R
IOWA FALLS *     N/A     48  44  87 W7        30.20R
$$

IAZ007>011-017>019-026>030-037>042-050>054-066-251200-
   NORTHEAST IOWA

CITY           SKY/WX    TMP DP  RH WIND       PRES   REMARKS
CEDAR RAPIDS   PTCLDY    48  46  93 NW7       30.15R
CHARLES CITY * PTCLDY    50  48  93 W8        30.15R
CLINTON *      PTCLDY    51  49  92 W7        30.14R
DECORAH *      CLEAR     48  46  93 CALM      30.11R
DUBUQUE        CLEAR     50  46  86 W5        30.13R
MONTICELLO *   PTCLDY    50  46  87 CALM      30.14R
OELWEIN *      CLEAR     50  46  87 W7        30.15R
WATERLOO       PTCLDY    51  44  77 W8        30.15R
$$

IAZ064-065-067-068-078-251200-
   EAST CENTRAL IOWA

CITY           SKY/WX    TMP DP  RH WIND       PRES   REMARKS
DAVENPORT      CLEAR     52  49  89 W7        30.15R
IOWA CITY      PTCLDY    50  44  80 W5        30.17R
MUSCATINE *    PTCLDY    52  45  76 W8        30.16R
QUAD CITIES    CLEAR     53  50  89 CALM      30.14R
$$

IAZ062-063-075>077-085>089-095>099-251200-
   SOUTHEAST IOWA

CITY           SKY/WX    TMP DP  RH WIND       PRES   REMARKS
BURLINGTON     CLEAR     54  45  71 NW7       30.16R
FAIRFIELD *    CLEAR     50  45  81 W7        30.18R
FORT MADISON * CLEAR     54  46  76 CALM      30.17S
KEOKUK *       CLEAR     52  48  87 W5        30.17R
OSKALOOSA *      N/A     49  46  89 W6        30.19R
OTTUMWA        CLEAR     50  48  93 W8        30.19R
WASHINGTON *   CLEAR     52  45  76 W8        30.18R
$$

ABBREVIATIONS USED IN REMARKS
   TC - TEMPERATURES IN CELSIUS
  WCI - WIND CHILL INDEX
   HX - HEAT INDEX
  VSB - VISIBILITY
$$





USA.gov is the U.S. government's official web portal to all federal, state and local government web resources and services.